Huntington, WV

9:41 PM EDT on April 27, 2017 (GMT -0400)
Tri-State / Ferguson

Weather History for KHTS - December, 2013

Change the Weather History Date:

Saturday, December 21, 2013

  Actual Average Record
Temperature  
Mean Temperature 67 °F 36 °F  
Max Temperature 75 °F 44 °F 75 °F (2013)
Min Temperature 58 °F 27 °F -6 °F (1942)
Degree Days  
Heating Degree Days 0 29  
Month to date heating degree days 522 566  
Since 1 July heating degree days 1473 1453  
Cooling Degree Days 2 0  
Month to date cooling degree days 2 0  
Year to date cooling degree days 1217 1134  
Growing Degree Days 16 (Base 50)    
Moisture  
Dew Point 56 °F    
Average Humidity 73    
Maximum Humidity 93    
Minimum Humidity 53    
Precipitation  
Precipitation 0.21 in 0.11 in 1.18 in (1988)
Month to date precipitation 4.03 2.28  
Year to date precipitation 43.39 41.56  
Snow  
Snow 0.00 in - - ()
Month to date snowfall 3.8  
Since 1 September snowfall 7.1  
Snow Depth 0.00 in    
Sea Level Pressure  
Sea Level Pressure 29.81 in    
Wind  
Wind Speed 10 mph (South)    
Max Wind Speed 18 mph    
Max Gust Speed 40 mph    
Visibility 9 miles    
Events Rain    
T = Trace of Precipitation, MM = Missing Value Source: NWS Daily Summary

Daily Weather History Graph

Daily Weather History Graph

Search for Another Location

Airport or City:

Trip Planner

Search our weather history database for the weather conditions in past years. The results will help you decide how hot, cold, wet, or windy it might be!

Date:

Astronomy

Dec. 21, 2013 Rise Set
Actual Time 7:43 AM EST 5:13 PM EST
Civil Twilight 7:14 AM EST 5:42 PM EST
Nautical Twilight 6:40 AM EST 6:16 PM EST
Astronomical Twilight 6:08 AM EST 6:48 PM EST
Moon 9:25 PM EST (12/21) 10:12 AM EST (12/21)
Length of Visible Light 10h 28m
Length of Day
9h 29m
Waning Gibbous, 84% of the Moon is Illuminated
Dec 21
Waning Gibbous
Dec 25
Last Quarter
Jan 1
New
Jan 7
First Quarter
Jan 15
Full

Hourly Weather History & Observations

Time (EST) Temp. Dew Point Humidity Pressure Visibility Wind Dir Wind Speed Gust Speed Precip Events Conditions
12:51 AM 62.1 °F 51.1 °F 67% 29.92 in 10.0 mi South 11.5 mph - N/A   Overcast
1:51 AM 62.1 °F 51.1 °F 67% 29.90 in 10.0 mi South 11.5 mph - N/A   Overcast
2:51 AM 62.1 °F 52.0 °F 70% 29.90 in 10.0 mi SSW 9.2 mph 16.1 mph N/A   Overcast
3:51 AM 62.1 °F 52.0 °F 70% 29.90 in 10.0 mi South 10.4 mph - N/A   Mostly Cloudy
4:51 AM 62.1 °F 53.1 °F 72% 29.88 in 10.0 mi South 11.5 mph - N/A   Overcast
5:51 AM 60.1 °F 54.0 °F 80% 29.88 in 10.0 mi SSW 8.1 mph 17.3 mph N/A   Mostly Cloudy
6:51 AM 59.0 °F 54.0 °F 83% 29.88 in 10.0 mi South 4.6 mph - 0.00 in   Overcast
7:51 AM 60.1 °F 52.0 °F 75% 29.86 in 10.0 mi South 6.9 mph - 0.00 in   Mostly Cloudy
8:51 AM 57.9 °F 53.1 °F 84% 29.85 in 3.0 mi SE 6.9 mph - 0.05 in Rain Rain
9:51 AM 60.1 °F 55.0 °F 83% 29.86 in 10.0 mi SSE 4.6 mph - 0.04 in   Mostly Cloudy
10:51 AM 64.9 °F 53.1 °F 65% 29.83 in 10.0 mi South 9.2 mph - N/A   Clear
11:51 AM 69.1 °F 54.0 °F 58% 29.80 in 10.0 mi SSW 8.1 mph - N/A   Clear
12:51 PM 73.0 °F 55.0 °F 53% 29.77 in 10.0 mi South 6.9 mph - N/A   Partly Cloudy
1:51 PM 73.9 °F 57.0 °F 55% 29.75 in 10.0 mi SSW 15.0 mph 34.5 mph N/A   Overcast
2:51 PM 73.0 °F 57.0 °F 57% 29.75 in 10.0 mi SSW 18.4 mph 29.9 mph N/A   Overcast
3:51 PM 71.1 °F 59.0 °F 66% 29.78 in 8.0 mi SW 13.8 mph 26.5 mph 0.00 in Rain Light Rain
4:35 PM 66.2 °F 62.6 °F 88% 29.82 in 1.8 mi SW 9.2 mph - 0.04 in Rain Light Rain
4:44 PM 66.2 °F 62.6 °F 88% 29.81 in 3.0 mi SSW 11.5 mph 18.4 mph 0.08 in Rain Light Rain
4:51 PM 64.9 °F 62.1 °F 90% 29.80 in 10.0 mi South 10.4 mph 17.3 mph 0.08 in Rain Light Rain
5:51 PM 64.9 °F 62.1 °F 90% 29.78 in 10.0 mi South 10.4 mph - 0.00 in Rain Light Rain
6:51 PM 64.9 °F 62.1 °F 90% 29.78 in 10.0 mi South 6.9 mph - 0.04 in   Overcast
7:51 PM 66.0 °F 60.1 °F 81% 29.77 in 10.0 mi South 8.1 mph - N/A   Overcast
8:51 PM 68.0 °F 59.0 °F 73% 29.72 in 10.0 mi SSE 6.9 mph - 0.00 in   Mostly Cloudy
9:51 PM 69.1 °F 57.9 °F 68% 29.68 in 10.0 mi SSE 10.4 mph - N/A   Mostly Cloudy
10:51 PM 70.0 °F 57.9 °F 65% 29.65 in 10.0 mi SSE 15.0 mph 21.9 mph 0.00 in   Overcast
11:51 PM 71.1 °F 57.0 °F 61% 29.63 in 10.0 mi South 17.3 mph 24.2 mph N/A   Clear